www.pogodaiklimat.ru

Погода и климат >> Архив погоды >> Россия >> Ханты-Мансийский АО >> Ваховск


ПОГОДА в Ваховске

  • Прогноз погоды в Ваховске
  • Монитор погоды в Ваховске
  • Климат города

АРХИВ ПОГОДЫ в Ваховске

Время (UTC), дата Ветер
(напр.,м/с)
 
Видим.   Явления Облачность Т
(С)
Тd
(С)
f
(%)
Тe
(С)
Тes
(С)
Комфортность P
(гПа)
Po
(гПа)
Тmin
(С)
Tmax
(С)
R
(мм)
R24
(мм)
S
(см)
09 18.04 ЮЗ 3 10 км 10/3 600 м
[Sc Ci fib]
+6.3 -6.7 39 +4 +7 1011.2 1004.4
12 18.04 ЮЗ 2 н/о н/о +4.6 -7.0 43 +3 +3 1012.1 1005.2
18 18.04 Ю 2 10 км 10/10 600 м
[Sc]
+2.2 -4.1 63 -1 -1 1009.8 1003.0
21 18.04 Ю 2 10 км 10/10 600 м
[Sc]
+2.1 -2.6 71 -1 -1 1007.3 1000.4
00 19.04 Ю 2 10 км 10/10 600 м
[Sc]
+1.8 -2.0 76 -1 -1 1005.2 998.4
03 19.04 Ю 2 10 км 10/10 600 м
[Cb cap]
+2.1 -0.7 82 -1 -1 1004.1 997.3 +1.1 17
06 19.04 З 3 н/о н/о +2.9 -2.0 70 -1 -1 1005.4 998.6
12 19.04 З 3 н/о н/о +0.8 -1.4 85 -4 -4 1011.3 1004.4
15 19.04 З 3 4000 м слабый ливневой снег 10/10 600 м
[Cb cap]
-1.5 -3.3 88 -7 -7 1014.1 1007.1 +3.6 2
18 19.04 СЗ 2 10 км {ливн. осадки} 6/6 600 м
[Cb cap]
-3.9 -8.7 69 -8 -8 1016.1 1009.1
21 19.04 З 2 10 км ясно -6.0 -10.2 72 -10 -10 1017.6 1010.5
00 20.04 З 2 н/о н/о -8.4 -13.1 69 -13 -13 1019.7 1012.5
03 20.04 З 3 10 км ясно -5.7 -13.3 55 -11 -7 1020.9 1013.8 -8.5 0.0 14
06 20.04 З 3 н/о н/о -2.6 -13.2 44 -7 -7 1021.8 1014.7
09 20.04 З 4 10 км ясно -0.8 -14.1 36 -5 -0 1022.5 1015.5
12 20.04 З 3 н/о н/о -0.4 -13.8 36 -4 -4 1022.8 1015.7
18 20.04 штиль 0 10 км ясно -9.4 -13.0 75 -10 -10 1024.4 1017.2
21 20.04 Ю 1 10 км ясно -11.1 -13.6 82 -13 -13 1025.3 1018.0
00 21.04 штиль 0 10 км ясно -11.8 -13.7 86 -12 -12 1026.3 1018.9
03 21.04 С 1 н/о н/о -4.4 -12.8 52 -6 -6 1026.2 1019.0 -12.1
06 21.04 С 3 10 км 10/0
[Ci fib]
-1.2 -12.6 42 -5 +1 1025.3 1018.2
09 21.04 ЮВ 3 10 км 10/0
[Ac trans Ci fib]
+0.5 -13.0 36 -3 +1 1023.6 1016.6
12 21.04 ЮВ 3 н/о н/о +0.4 -11.9 39 -3 -3 1021.8 1014.8
15 21.04 В 4
{10}
10 км 10/0
[As op]
-0.6 -7.4 60 -6 -6 1018.4 1011.4 +1.1
18 21.04 ЮВ 5 10 км 10/10 600 м
[Cb cap]
+0.6 -8.7 50 -5 -5 1015.4 1008.5
21 21.04 ЮВ 4
{11}
10 км 6/6 600 м
[Cb cap]
+1.7 -6.9 53 -3 -3 1012.7 1005.8
03 22.04 ЮВ 6-12
{12}
10 км 10/6 600 м
[Cb cap Ci fib]
+5.3 -5.4 46 +1 +2 1009.6 1002.8 -0.6 13
06 22.04 ЮВ 7-13
{14}
н/о н/о +7.9 -5.5 38 +4 +4 1007.9 1001.1
15 22.04 ЮВ 3
{10}
10 км 10/0
[As trans]
+6.7 -6.0 40 +4 +4 1007.7 1001.0 +8.9
18 22.04 З 2 4000 м слабый ливневой снег 10/10
[Cb cap]
+2.1 +1.0 92 -1 -1 1010.1 1003.2
21 22.04 З 1 10 км {ливн. осадки} 10/10
[Cb cap]
+0.1 -1.0 92 -2 -2 1012.6 1005.7
00 23.04 ЮЗ 1 н/о н/о -1.3 -2.0 95 -4 -4 1015.0 1008.1
03 23.04 З 2 10 км 3/0
[Ci fib]
+3.4 -3.2 62 +1 +6 1017.2 1010.3 -1.6 0.6 8
06 23.04 СЗ 2 н/о н/о +5.8 -6.3 41 +4 +4 1018.3 1011.5
09 23.04 СЗ 2 10 км 10/0
[Ci fib]
+7.4 -7.8 33 +6 +13 1018.4 1011.6
12 23.04 СВ 2 н/о н/о +5.4 -5.4 46 +4 +4 1018.1 1011.3
18 23.04 В 1 10 км 10/0
[Ac und]
-0.5 -4.5 74 -2 -2 1016.5 1009.5
21 23.04 В 1 10 км 10/0
[Ac und]
-0.7 -4.3 77 -3 -3 1014.4 1007.4
00 24.04 СВ 1 10 км 10/0
[Ac trans Ci fib]
-2.9 -4.3 90 -5 -5 1013.2 1006.2
03 24.04 С 1 10 км 3/0
[Ci fib]
+5.8 -3.6 51 +5 +11 1012.3 1005.5 -2.9 2
06 24.04 СВ 2 н/о н/о +8.2 -1.7 50 +7 +7 1011.0 1004.3
09 24.04 Ю 3 10 км 8/8 600 м
[Sc]
+10.2 -1.6 44 +9 +10 1011.5 1004.9
12 24.04 Ю 3 н/о н/о +10.9 -1.3 43 +9 +9 1012.6 1006.0
18 24.04 Ю 2 10 км ясно +2.9 -2.6 67 0 0 1017.6 1010.7
21 24.04 Ю 3 10 км ясно +2.2 -1.8 75 -2 -2 1020.0 1013.1
00 25.04 Ю 1 10 км ясно +0.4 -2.3 82 -1 -1 1021.7 1014.7
03 25.04 Ю 2 10 км 9/0
[Ac trans Ci fib]
+8.9 -2.7 44 +8 +11 1022.9 1016.2 -0.3 0
06 25.04 ЮВ 3 н/о н/о +10.3 -4.0 36 +9 +9 1022.9 1016.1

 

Местоположение метеостанции Ваховск (Ханты-Мансийский АО, Россия): широта 60.95 долгота 78.77 высота над уровнем моря 56 м.

В архиве по умолчанию представлена погода в Ваховске за последнюю неделю. Архивные данные за месяц целиком и за предыдущие месяцы, начиная с января 2011 года, Вы можете получить, выбрав интересующий диапазон дат из раскрывающегося списка и нажав кнопку "Ввод!".

Внимание! Время в таблицах - всемирное. Для получения местного времени необходимо прибавить поправку, которая в Ваховске равна 5 ч.

Смотрите также архив погоды в соседних городах и на ближайших метеорологических станциях:

Погода в Александровском (Томская область, Россия) (76 км)
Погода в Ларьяке (Ханты-Мансийский АО, Россия) (81 км)
Погода в Нижневартовске (Ханты-Мансийский АО, Россия) (117 км)
Погода в Радужном (Ханты-Мансийский АО, Россия) (154 км)
Погода в Прохоркино (Томская область, Россия) (164 км)
Погода в Среднем Васюгане (Томская область, Россия) (195 км)
Погода в Корликах (Ханты-Мансийский АО, Россия) (206 км)
Погода в Напасе (Томская область, Россия) (213 км)
Погода в Каргасоке (Томская область, Россия) (239 км)
Погода в Угуте (Ханты-Мансийский АО, Россия) (263 км)

Пояснения к столбцам:

Ветер - указаны скорость ветра в м/с - средняя за 10 мин, порывы в срок и между сроками (в фигурных скобках) и направление, откуда дует ветер: С - северный, СВ - северо-восточный, В - восточный, ЮВ - юго-восточный, Ю - южный, ЮЗ - юго-западный, З - западный, СЗ - северо-западный.
Видимость - горизонтальная дальность видимости в метрах или километрах. При видимости от 1 до 10 км при отсутствии осадков обычно наблюдается дымка, при ухудшении видимости до 1 км и менее - туман. В сухую погоду видимость может ухудшаться дымом, пылью или мглою.
Явления - указаны атмосферные явления, наблюдавшиеся в срок или в последний час перед сроком; фигурными скобками обозначены явления, наблюдавшиеся между сроками (за 1-3 часа до срока); квадратными скобками обозначены град или гололедные отложения с указанием их диаметра в мм.
Облачность - указаны через наклонную черту общая и нижняя облачность в баллах и высота нижней границы облаков в метрах; квадратными скобками обозначены формы облаков: Ci - перистые, Cs - перисто-слоистые, Cc - перисто-кучевые, Ac - высококучевые, As - высокослоистые, Sc - слоисто-кучевые, Ns - слоисто-дождевые, Cu - кучевые, Cb - кучево-дождевые. Подробнее классификацию облаков см. в Атласе облаков (PDF).
T - Температура воздуха - температура, измеренная на высоте 2 м над землей.
Td - Температура точки росы - температура, при понижении до которой содержащийся в воздухе водяной пар достигнет насыщения.
f - Относительная влажность воздуха - влажноcть воздуха, измеренная на высоте 2 м над землей.
Te - Эффективная температура - температура, которую ощущает одетый по сезону человек в тени. Характеристика душности погоды. При расчете учитывается влияние влажности воздуха и скорости ветра на теплоощущения человека.
Tes - Эффективная температура на солнце - температура, которую ощущает человек, с поправкой на солнечный нагрев. Характеристика знойности погоды. Зависит от высоты солнца над горизонтом, облачности и скорости ветра. Ночью, в пасмурную погоду, а также при ветре 12 м/с и более поправка равна нулю.
P - Атмосферное давление - приведенное к уровню моря атмосферное давление.
Po - Атмосферное давление - измеренное на уровне метеостанции атмосферное давление.
Tmin - Минимальная температура - минимум температуры воздуха на высоте 2 м над землей.
Tmax - Максимальная температура - максимум температуры воздуха на высоте 2 м над землей.
R - Количество осадков - Количество выпавших осадков за период времени, мм. При наведении курсора мыши на число - период времени, за который выпало указанное количество осадков.
R24 - Количество осадков - Количество выпавших осадков за 24 часа, мм.
S - Снежный покров - Высота снежного покрова, см. При наведении курсора мыши на число - состояние снежного покрова и степень покрытия местности в баллах.